Precipitable_Water
0.52 0.52 0.51 0.50 0.49 0.47 0.42 0.40 0.35 0.36 0.34 0.33 0.35 0.35 0.36 0.46 0.66 0.70 0.53 0.61 0.64 0.61 0.53 0.64 0.76 0.83 1.05 0.91 1.08 1.07 0.76 0.62 0.59 0.65 0.61 0.79 0.82 0.91 0.95 0.85 0.95 0.96 0.92 1.06 1.33
0.52 0.52 0.51 0.48 0.48 0.45 0.41 0.39 0.37 0.34 0.34 0.33 0.34 0.34 0.40 0.52 0.49 0.41 0.48 0.50 0.50 0.40 0.48 0.60 0.68 0.77 0.72 0.74 0.97 0.88 0.76 0.55 0.62 0.62 0.68 0.77 0.83 0.86 0.87 0.79 0.89 0.88 1.00 1.15 1.24
0.52 0.51 0.50 0.47 0.46 0.42 0.40 0.38 0.37 0.33 0.34 0.33 0.32 0.32 0.42 0.56 0.44 0.41 0.38 0.35 0.33 0.44 0.50 0.61 0.72 0.71 0.66 0.80 0.79 0.81 0.66 0.56 0.56 0.65 0.72 0.78 0.83 0.92 0.84 0.75 0.87 0.80 0.90 1.06 1.14
0.51 0.50 0.50 0.46 0.45 0.42 0.40 0.38 0.35 0.34 0.33 0.32 0.32 0.31 0.39 0.46 0.28 0.42 0.29 0.28 0.38 0.48 0.48 0.56 0.65 0.66 0.66 0.65 0.71 0.65 0.67 0.57 0.57 0.59 0.65 0.76 0.90 0.85 0.90 0.83 1.00 0.97 1.01 1.06 1.08
0.49 0.48 0.48 0.45 0.42 0.41 0.39 0.37 0.36 0.34 0.32 0.32 0.32 0.33 0.31 0.26 0.35 0.51 0.29 0.30 0.35 0.40 0.43 0.50 0.58 0.67 0.64 0.66 0.68 0.62 0.59 0.53 0.57 0.58 0.65 0.79 0.81 0.86 0.89 1.03 1.04 1.08 1.07 1.04 1.10
0.47 0.47 0.45 0.44 0.43 0.41 0.39 0.37 0.36 0.34 0.33 0.32 0.32 0.34 0.25 0.16 0.39 0.48 0.32 0.30 0.34 0.36 0.40 0.47 0.56 0.69 0.65 0.64 0.62 0.54 0.50 0.48 0.51 0.54 0.61 0.68 0.76 0.83 0.92 1.10 1.03 1.02 1.10 1.11 1.13
0.44 0.43 0.44 0.44 0.43 0.41 0.40 0.38 0.36 0.35 0.36 0.37 0.33 0.31 0.21 0.17 0.31 0.45 0.36 0.30 0.35 0.36 0.38 0.46 0.58 0.63 0.63 0.58 0.60 0.54 0.47 0.46 0.46 0.53 0.55 0.67 0.59 0.63 0.93 1.03 1.02 1.00 1.08 1.18 1.22
0.43 0.42 0.40 0.42 0.43 0.41 0.41 0.39 0.40 0.38 0.39 0.38 0.39 0.33 0.17 0.23 0.31 0.35 0.35 0.31 0.36 0.38 0.41 0.46 0.56 0.57 0.61 0.60 0.55 0.52 0.49 0.43 0.41 0.41 0.56 0.58 0.49 0.55 0.84 0.91 0.94 1.01 1.04 1.15 1.28
0.41 0.41 0.41 0.40 0.39 0.39 0.39 0.39 0.44 0.45 0.44 0.45 0.37 0.30 0.16 0.23 0.23 0.31 0.34 0.29 0.32 0.33 0.32 0.42 0.49 0.47 0.52 0.52 0.46 0.50 0.45 0.38 0.36 0.35 0.42 0.51 0.51 0.55 0.78 0.82 0.90 0.99 1.02 1.10 1.29
0.40 0.40 0.40 0.40 0.39 0.38 0.36 0.41 0.45 0.50 0.49 0.50 0.42 0.23 0.19 0.21 0.26 0.29 0.35 0.32 0.30 0.26 0.23 0.26 0.38 0.41 0.45 0.44 0.38 0.46 0.41 0.35 0.28 0.30 0.40 0.44 0.49 0.55 0.67 0.74 0.84 0.98 1.04 1.11 1.25
0.41 0.40 0.39 0.38 0.37 0.38 0.39 0.35 0.29 0.30 0.31 0.25 0.27 0.21 0.21 0.27 0.31 0.28 0.33 0.27 0.27 0.22 0.17 0.22 0.25 0.32 0.42 0.44 0.43 0.44 0.37 0.33 0.29 0.32 0.36 0.43 0.46 0.52 0.59 0.72 0.79 0.91 0.98 1.08 1.20
0.40 0.40 0.40 0.38 0.35 0.36 0.40 0.29 0.29 0.32 0.21 0.24 0.25 0.25 0.24 0.28 0.21 0.27 0.32 0.22 0.21 0.16 0.19 0.17 0.15 0.33 0.39 0.37 0.39 0.38 0.35 0.31 0.30 0.33 0.40 0.44 0.47 0.50 0.52 0.64 0.72 0.85 0.92 1.01 1.19
0.41 0.40 0.39 0.37 0.35 0.35 0.34 0.31 0.36 0.36 0.22 0.22 0.21 0.21 0.22 0.23 0.21 0.25 0.27 0.25 0.20 0.17 0.15 0.13 0.20 0.22 0.31 0.34 0.35 0.36 0.32 0.28 0.29 0.33 0.35 0.34 0.40 0.43 0.50 0.57 0.61 0.71 0.89 1.01 1.16
0.42 0.42 0.41 0.37 0.29 0.27 0.33 0.39 0.38 0.37 0.17 0.18 0.17 0.20 0.21 0.22 0.18 0.28 0.31 0.28 0.21 0.16 0.16 0.14 0.18 0.20 0.22 0.22 0.24 0.25 0.28 0.28 0.27 0.27 0.28 0.32 0.26 0.34 0.35 0.37 0.50 0.63 0.75 0.92 1.12
0.43 0.43 0.44 0.43 0.32 0.27 0.38 0.38 0.41 0.34 0.12 0.16 0.17 0.26 0.23 0.18 0.22 0.22 0.30 0.29 0.23 0.20 0.15 0.14 0.13 0.15 0.17 0.17 0.25 0.29 0.29 0.27 0.29 0.28 0.27 0.29 0.24 0.28 0.33 0.42 0.50 0.65 0.72 0.85 1.08
0.43 0.43 0.42 0.42 0.36 0.31 0.37 0.38 0.36 0.20 0.13 0.17 0.21 0.18 0.19 0.19 0.20 0.26 0.23 0.29 0.30 0.23 0.19 0.22 0.24 0.23 0.20 0.27 0.27 0.33 0.29 0.28 0.26 0.25 0.21 0.27 0.23 0.20 0.35 0.42 0.47 0.63 0.89 0.90 1.05
0.45 0.43 0.41 0.41 0.31 0.33 0.37 0.32 0.18 0.14 0.20 0.16 0.19 0.21 0.18 0.18 0.19 0.20 0.22 0.21 0.18 0.16 0.16 0.17 0.18 0.23 0.26 0.22 0.26 0.28 0.24 0.20 0.20 0.19 0.18 0.32 0.24 0.24 0.44 0.42 0.49 0.59 0.81 0.99 1.05
0.48 0.43 0.44 0.42 0.46 0.39 0.36 0.24 0.15 0.17 0.17 0.20 0.20 0.20 0.19 0.18 0.18 0.20 0.22 0.21 0.23 0.22 0.19 0.16 0.14 0.21 0.27 0.26 0.24 0.24 0.25 0.21 0.20 0.19 0.20 0.29 0.22 0.32 0.40 0.46 0.59 0.76 0.80 1.09 1.13
0.49 0.47 0.40 0.44 0.50 0.43 0.32 0.19 0.17 0.18 0.20 0.18 0.19 0.17 0.19 0.20 0.17 0.19 0.19 0.22 0.25 0.22 0.17 0.16 0.16 0.26 0.30 0.33 0.32 0.30 0.23 0.32 0.27 0.24 0.18 0.25 0.32 0.30 0.39 0.49 0.64 0.78 1.02 1.04 1.10
0.46 0.44 0.37 0.45 0.47 0.40 0.31 0.24 0.25 0.22 0.22 0.20 0.17 0.20 0.20 0.22 0.19 0.18 0.18 0.21 0.22 0.24 0.26 0.26 0.19 0.23 0.30 0.33 0.35 0.35 0.38 0.26 0.25 0.21 0.20 0.28 0.26 0.30 0.34 0.49 0.64 0.73 0.90 0.99 1.06
0.53 0.40 0.41 0.43 0.39 0.38 0.29 0.27 0.28 0.25 0.24 0.22 0.22 0.20 0.22 0.22 0.21 0.20 0.21 0.21 0.20 0.20 0.24 0.26 0.24 0.27 0.29 0.27 0.30 0.32 0.29 0.31 0.34 0.31 0.27 0.26 0.29 0.40 0.40 0.54 0.63 0.74 0.84 1.00 1.04
0.40 0.35 0.46 0.44 0.30 0.35 0.33 0.35 0.32 0.26 0.25 0.23 0.24 0.23 0.23 0.23 0.23 0.23 0.21 0.23 0.23 0.22 0.20 0.26 0.26 0.23 0.23 0.36 0.36 0.39 0.34 0.35 0.28 0.32 0.27 0.30 0.31 0.39 0.45 0.58 0.67 0.73 0.82 0.95 1.06
0.36 0.29 0.43 0.42 0.27 0.28 0.34 0.35 0.34 0.28 0.25 0.23 0.21 0.24 0.28 0.25 0.22 0.27 0.31 0.30 0.29 0.24 0.23 0.27 0.22 0.23 0.24 0.30 0.35 0.30 0.31 0.33 0.40 0.41 0.33 0.27 0.34 0.49 0.53 0.58 0.66 0.70 0.80 0.89 1.00
0.39 0.26 0.28 0.32 0.36 0.35 0.34 0.33 0.34 0.36 0.28 0.26 0.24 0.24 0.23 0.24 0.28 0.29 0.31 0.36 0.36 0.32 0.34 0.32 0.24 0.24 0.22 0.25 0.31 0.34 0.31 0.34 0.40 0.35 0.38 0.33 0.41 0.42 0.49 0.54 0.65 0.70 0.77 0.84 0.91
0.38 0.32 0.37 0.27 0.27 0.31 0.35 0.37 0.34 0.35 0.36 0.31 0.26 0.24 0.22 0.23 0.27 0.28 0.35 0.40 0.41 0.40 0.35 0.31 0.26 0.28 0.26 0.33 0.37 0.38 0.39 0.39 0.41 0.44 0.41 0.40 0.39 0.56 0.56 0.60 0.68 0.72 0.76 0.77 0.81
0.32 0.34 0.36 0.34 0.35 0.31 0.27 0.31 0.34 0.36 0.38 0.33 0.28 0.32 0.37 0.25 0.28 0.36 0.41 0.42 0.41 0.44 0.39 0.38 0.28 0.30 0.24 0.27 0.30 0.35 0.42 0.45 0.47 0.49 0.50 0.48 0.49 0.62 0.67 0.70 0.69 0.71 0.75 0.76 0.80
0.38 0.40 0.37 0.34 0.34 0.29 0.30 0.30 0.31 0.38 0.39 0.44 0.42 0.37 0.35 0.38 0.35 0.47 0.47 0.49 0.49 0.45 0.44 0.40 0.33 0.29 0.22 0.28 0.29 0.31 0.36 0.42 0.46 0.48 0.48 0.45 0.61 0.61 0.62 0.66 0.69 0.71 0.75 0.77 0.80
Wind_Speed
8 8 7 7 7 7 8 7 7 7 6 6 6 6 6 7 9 10 10 9 9 8 7 8 7 7 7 3 3 1 1 3 5 4 8 8 7 9 9 10 10 11 11 12 11
10 9 9 9 9 9 8 8 8 7 7 7 6 6 6 5 8 8 9 10 10 9 9 10 9 9 5 4 3 5 4 2 2 2 3 5 5 7 8 9 9 11 12 12 10
11 10 11 11 10 10 10 9 9 8 8 7 7 6 6 6 8 6 7 9 10 11 11 10 9 10 6 5 3 4 3 3 4 1 1 4 4 5 7 7 8 8 10 10 9
13 12 12 11 11 11 11 10 10 10 9 8 8 7 6 8 6 6 7 9 10 11 12 12 11 11 7 6 4 5 4 2 3 3 2 3 4 3 4 8 8 8 8 8 8
14 14 13 13 13 12 12 12 11 10 10 9 8 7 7 9 8 6 7 8 9 10 11 12 13 11 9 6 6 5 3 3 2 1 2 3 3 1 1 4 6 7 6 6 6
15 15 15 14 14 13 13 13 12 12 11 10 9 8 8 10 9 8 7 8 9 10 11 12 11 10 8 7 6 4 3 3 3 2 3 3 1 1 1 2 4 4 3 4 4
16 16 16 15 15 15 14 14 13 12 11 10 9 9 10 11 10 9 9 9 10 10 11 12 11 12 9 9 6 6 6 5 5 4 3 3 2 3 2 3 4 3 2 2 2
17 17 16 16 16 16 15 15 14 12 11 10 10 9 10 10 11 11 10 10 10 11 12 12 12 11 10 8 8 6 7 6 2 5 4 6 2 2 4 5 4 4 2 1 1
18 18 17 17 17 16 16 15 14 12 11 10 10 10 10 10 12 12 12 10 10 11 13 14 13 12 12 13 10 9 6 5 3 3 4 7 3 2 4 5 5 5 4 3 3
18 18 18 18 18 17 16 15 14 13 12 11 12 11 12 11 11 12 12 12 11 11 13 15 15 15 14 14 13 11 10 6 6 4 7 9 11 4 5 6 6 7 6 5 5
18 18 18 18 18 17 15 14 14 14 15 15 10 12 9 11 12 13 13 13 13 12 14 12 17 19 17 16 10 8 9 8 6 4 7 8 9 8 6 6 6 7 9 9 7
18 18 18 18 17 16 15 13 13 14 14 16 17 16 14 12 12 14 14 14 14 15 13 13 18 15 12 13 13 12 12 10 7 4 6 4 6 5 6 6 7 8 10 12 10
19 18 18 18 17 16 14 13 13 13 15 15 16 16 15 15 14 14 16 15 14 15 16 16 11 14 15 15 15 15 14 10 9 5 6 5 9 7 6 7 8 10 11 12 12
19 19 18 18 17 16 16 14 13 13 13 14 15 15 16 15 15 16 16 14 14 15 14 16 14 15 15 15 15 15 14 11 10 10 8 5 6 7 8 9 8 8 8 9 11
19 20 19 18 18 17 16 15 14 13 12 11 14 14 15 18 11 16 17 16 15 14 14 12 17 16 15 15 15 9 9 12 11 11 10 10 9 8 7 7 6 5 3 5 7
18 19 19 20 20 19 17 16 15 16 15 12 12 15 17 20 15 12 18 16 14 14 15 12 12 14 13 11 14 11 9 9 10 11 14 10 10 11 6 5 6 4 3 3 5
16 17 18 19 18 18 18 17 16 19 13 14 13 13 16 17 20 17 18 20 16 15 17 17 17 14 15 13 14 16 13 11 11 12 10 6 9 9 4 7 8 7 4 3 4
14 15 16 18 19 18 19 18 19 15 15 13 14 15 15 17 19 19 19 20 21 16 11 16 17 19 16 17 15 18 15 13 9 10 9 6 8 6 5 6 5 4 4 3 3
12 12 14 15 18 19 19 20 16 15 15 15 15 15 15 16 15 21 22 21 20 19 15 15 15 14 14 14 15 14 15 10 10 8 11 8 7 8 6 4 2 0 1 2 3
11 12 12 14 16 18 19 19 15 14 13 15 18 14 15 16 18 19 21 21 21 20 20 11 14 15 16 15 13 13 14 11 12 10 11 6 8 5 5 4 2 1 2 3 4
12 12 12 13 16 18 19 17 15 14 14 13 14 16 15 14 18 19 16 18 21 20 23 17 14 12 14 19 17 15 16 15 9 9 7 7 7 4 4 2 2 2 3 4 5
10 12 13 14 16 17 18 16 15 15 15 14 14 15 16 15 16 18 20 15 15 20 21 20 16 17 18 13 14 14 17 18 15 12 13 10 6 5 4 3 3 3 4 5 6
10 10 12 14 15 17 15 17 17 16 16 15 15 15 15 15 15 17 16 16 15 19 20 20 17 16 18 16 16 18 18 18 16 12 11 12 7 6 5 4 4 4 5 5 6
11 11 12 13 13 14 15 16 17 18 19 19 18 16 17 19 18 16 16 17 18 19 14 18 22 21 16 17 17 16 17 18 20 14 11 13 6 9 5 5 5 5 6 6 7
9 10 12 12 13 13 15 14 16 17 19 18 18 21 20 18 19 20 18 18 18 18 19 20 21 22 21 14 14 16 15 17 19 15 13 12 12 5 6 6 6 7 7 8 9
8 10 11 11 12 14 13 13 15 16 17 19 20 17 16 21 19 13 15 16 17 17 19 20 21 21 24 21 19 17 15 14 15 13 13 10 8 7 8 8 7 8 9 9 9
7 9 10 11 12 13 11 12 13 14 17 19 18 19 20 18 19 17 17 17 17 17 19 19 20 19 21 19 21 23 21 18 16 14 13 13 8 9 8 8 8 8 8 8 8
Wind_Direction
246 252 260 271 281 290 293 297 297 297 298 294 285 279 276 263 230 214 218 216 212 214 203 188 183 186 180 206 193 182 262 86 75 69 71 83 77 62 59 71 57 55 60 76 93
251 256 260 270 279 285 287 288 291 290 291 290 282 277 273 253 209 208 218 218 215 212 204 193 193 181 187 199 195 220 261 69 71 64 51 87 76 76 70 74 65 67 71 81 88
251 257 264 270 276 280 282 284 285 285 284 283 279 272 266 230 214 210 215 213 211 208 206 202 197 189 207 191 168 160 121 127 84 105 91 113 105 89 69 72 67 83 88 85 84
253 258 262 268 274 276 280 280 280 280 277 276 273 267 257 210 213 213 214 205 207 209 206 201 197 201 204 189 163 163 142 145 97 93 99 150 121 95 87 61 67 83 91 86 80
254 258 262 267 270 273 277 277 276 275 273 269 265 259 230 217 211 214 209 203 204 202 199 199 200 201 205 189 175 191 160 173 168 140 118 130 161 104 124 57 85 91 90 84 78
254 257 262 265 268 271 274 274 273 270 267 263 256 249 229 224 215 216 211 205 202 198 195 194 196 201 198 194 201 179 180 190 181 169 170 177 182 222 120 136 115 113 99 83 74
255 258 260 262 266 270 271 270 269 266 261 253 245 240 232 229 218 218 213 209 205 202 198 193 199 205 198 194 202 206 222 198 201 202 204 223 239 244 172 172 161 158 154 91 53
255 258 260 262 266 268 268 267 265 260 252 243 238 237 234 223 222 218 215 212 209 206 203 199 203 205 210 202 206 216 222 219 185 234 211 234 252 219 183 197 200 199 208 237 325
256 258 260 262 264 266 266 265 255 248 243 237 236 234 231 223 219 216 215 214 211 210 206 206 207 208 206 212 211 215 232 235 230 249 239 224 259 321 220 224 221 222 227 248 274
256 258 259 261 262 264 263 256 244 242 239 237 235 234 226 219 220 218 215 214 212 212 209 211 211 214 214 217 225 219 233 228 248 244 246 240 249 258 237 234 231 229 235 245 259
256 257 259 260 260 259 255 245 241 236 234 236 231 232 226 228 220 216 213 211 213 215 215 208 215 215 218 224 238 222 240 248 246 245 267 246 248 248 228 247 238 239 243 247 254
256 256 257 257 257 252 244 241 239 242 247 236 236 235 234 229 224 216 212 212 213 217 210 213 217 215 219 217 223 231 240 235 231 257 238 237 236 237 248 256 263 258 254 247 245
255 255 254 254 251 239 236 234 243 240 241 234 231 231 226 221 223 215 212 214 218 218 218 224 212 209 215 217 225 236 239 223 242 233 238 256 242 237 244 265 281 281 265 249 240
254 254 252 251 236 235 231 235 242 234 241 222 226 224 220 221 228 218 214 215 218 223 218 225 214 217 218 225 226 228 221 228 235 245 249 253 275 241 262 272 286 296 272 248 231
255 252 247 240 237 229 230 237 231 232 240 222 218 221 219 214 214 214 213 216 221 214 216 216 216 217 222 225 216 221 216 227 235 246 261 243 264 264 267 258 293 316 286 244 230
255 251 244 233 231 231 231 232 226 229 232 220 219 217 215 214 215 210 209 217 222 218 223 228 219 221 222 219 217 207 209 218 237 252 254 255 269 276 248 276 282 320 302 251 232
257 248 236 230 227 226 225 220 224 230 222 218 217 216 219 213 217 216 208 209 213 214 220 220 220 217 220 211 213 217 218 239 243 237 259 247 261 262 269 274 286 295 282 246 243
259 243 228 226 225 222 216 218 227 228 223 223 225 227 224 212 220 215 215 214 218 223 225 219 215 217 215 224 217 219 230 248 252 256 252 243 258 249 271 289 285 283 237 220 250
252 228 223 222 219 213 213 218 225 226 228 229 231 229 219 220 225 215 219 219 216 218 224 220 224 209 219 219 220 213 226 249 252 251 264 244 248 259 260 259 239 293 188 226 262
234 223 222 218 211 211 215 223 226 228 231 226 229 225 225 217 217 216 216 225 223 222 222 222 226 218 212 214 220 232 216 228 238 248 257 233 256 251 239 220 208 228 231 243 274
225 221 219 216 210 211 216 219 225 222 226 227 224 227 226 223 226 218 218 222 221 218 219 224 230 210 218 220 219 221 227 237 254 252 266 250 237 219 252 230 208 232 256 267 281
225 222 216 212 211 217 220 220 223 224 223 228 230 230 227 227 225 224 224 227 223 213 212 216 226 233 223 219 231 235 237 232 238 231 245 268 267 235 228 219 243 252 264 281 286
225 218 215 215 220 218 221 224 228 227 226 227 229 227 226 227 230 227 224 223 217 216 218 213 226 225 229 232 230 235 233 238 239 244 233 245 230 214 219 235 255 255 264 277 287
225 218 216 219 222 224 223 227 229 227 233 232 234 235 234 234 227 231 228 220 221 222 225 225 227 228 235 234 226 227 231 227 225 228 224 233 217 214 232 247 242 254 264 272 286
227 223 225 219 220 225 227 228 229 230 229 229 231 233 235 235 231 228 229 224 221 220 224 225 228 227 234 237 233 235 225 216 223 233 230 242 214 213 245 263 253 257 263 273 287
229 226 220 219 222 227 225 228 234 234 232 228 228 227 235 230 231 234 233 226 225 220 222 225 230 228 231 231 234 232 224 216 221 229 236 231 223 249 252 250 254 262 264 275 283
228 223 227 219 221 228 227 232 233 238 232 236 236 237 236 235 234 235 236 234 231 229 221 221 222 223 226 224 231 232 227 222 222 221 228 233 239 244 251 252 254 260 267 275 287